Regional Weather Roundup
Issued by NWS

Home | Current Version | Previous Version | Graphics & Text | Print | Product List | Glossary On
Versions: 1 2 3 4 5 6 7 8 9 10 11 12 13 14 15 16 17 18 19 20 21 22 23 24 25 26 27 28 29 30 31 32 33 34 35 36 37 38 39 40 41 42 43 44 45 46 47 48 49 50
152
ASUS44 KMEG 220800
RWRTN
TENNESSEE HOURLY STATE WEATHER ROUNDUP
NATIONAL WEATHER SERVICE MEMPHIS TN
200 AM CST WED FEB 22 2017

TNZ002-004-019-021-049-052-054-088>092-220900-
WEST TENNESSEE

CITY           SKY/WX    TMP DP  RH WIND       PRES   REMARKS
MEMPHIS INTL   CLOUDY    60  58  92 SE3       29.85S
NWS MEMPHIS      N/A     59 N/A N/A MISG        N/A
JACKSON        CLOUDY    58  57  97 E5        29.86F
UNION CITY     PTCLDY   N/A N/A N/A CALM      29.87R
PARIS          CLEAR     55  55 100 SE9       29.85F
$$

TNZ008-025-027-028-033-062-065-066-220900-
NORTH MIDDLE TENNESSEE

CITY           SKY/WX    TMP DP  RH WIND       PRES   REMARKS
NASHVILLE      CLOUDY    57  54  89 NE5       29.91F FOG
CLARKSVILLE    CLOUDY    57  54  89 S5        29.89F
SMYRNA         CLOUDY    55  54  96 CALM      29.92F FOG
CROSSVILLE     CLOUDY    56  52  86 CALM      29.94F
$$

TNZ061-075-076-078-094-096-097-220900-
SOUTH MIDDLE TENNESSEE

CITY           SKY/WX    TMP DP  RH WIND       PRES   REMARKS
TULLAHOMA      CLOUDY    57  55  94 SE3       29.91S
WINCHESTER     CLOUDY    57  55  94 CALM      29.90F
MCMINNVILLE    CLOUDY    63  55  77 CALM      29.90F
COLUMBIA       CLOUDY   N/A N/A N/A CALM      29.88F
SHELBYVILLE    CLOUDY    55  55 100 CALM      29.91F
$$

TNZ017-018-042-046-047-220900-
NORTHEAST TENNESSEE

CITY           SKY/WX    TMP DP  RH WIND       PRES   REMARKS
TRI CITIES     MOCLDY    52  43  71 CALM      29.97F
$$

TNZ012-013-036-069-073-074-220900-
CENTRAL EAST TENNESSEE

CITY           SKY/WX    TMP DP  RH WIND       PRES   REMARKS
KNOXVILLE      CLOUDY    56  51  84 CALM      29.92F
OAK RIDGE      CLOUDY    56  53  90 CALM      29.94F
GATLINBURG     CLOUDY    55  46  71 CALM      29.92F
$$

TNZ083-085-099-220900-
SOUTHEAST TENNESSEE

CITY           SKY/WX    TMP DP  RH WIND       PRES   REMARKS
CHATTANOOGA    CLOUDY    57  55  93 N5        29.91F FOG
$$

SKY/WX REPORTED AS FAIR MEANS FEW OR NO CLOUDS BELOW
12 THOUSAND FEET.





USA.gov is the U.S. government's official web portal to all federal, state and local government web resources and services.